sat.trackr.live / text

‹ back to catalog

ONEWEB-0067

NORAD 45425 · 2020-020B

PAYLOAD ACTIVE UNKNOWN

§ Identity

Operator
Country
UK
Launch date
2020-03-21
Launch site
TYMSC
Launch vehicle
Mass (kg)
RCS (m²)

Purposes: comms

External: N2YO · Heavens-Above · Gunter

§ Orbital elements

Epoch: 2026-09-12T20:22:30.564768Z

Period
109.80 min
Inclination
87.8986°
Eccentricity
0.0001909
Mean motion
13.11425176 rev/d
Perigee alt
1,216.2 km
Apogee alt
1,219.1 km
Semi-major
7,595.8 km
B*
-2.0045e-4
RAAN
3.5788°
Arg perigee
104.5800°
Mean anomaly
255.5540°
Rev number
31,422

§ Raw data

ONEWEB-00671 45425U 20020B   26255.84896487 -.00000058  00000+0 -20045-3 0  99962 45425  87.8986   3.5788 0001909 104.5800 255.5540 13.11425176314225

JSON: /api/v1/satellites/45425 · /tle

For live sub-satellite position, see the globe view (requires WebGL).

§ Visibility from observer

Set your observer location to see the next 7 days of passes ≥ 10°. The values pass through the URL so the page stays shareable.

No JS? Fill the form by hand. The geolocation button needs JavaScript.